#datetime,building,power
2024-02-24T00:00:00,axn,28.11
2024-02-24T00:01:00,axn,27.14
2024-02-24T00:02:00,axn,27.31
2024-02-24T00:03:00,axn,27.86
2024-02-24T00:04:00,axn,27.57
2024-02-24T00:05:00,axn,27.15
2024-02-24T00:06:00,axn,27.14
2024-02-24T00:07:00,axn,27.45
2024-02-24T00:08:00,axn,27.37
2024-02-24T00:09:00,axn,27.44
2024-02-24T00:10:00,axn,27.51
2024-02-24T00:11:00,axn,27.46
2024-02-24T00:12:00,axn,27.56
2024-02-24T00:13:00,axn,28.40
2024-02-24T00:14:00,axn,27.28
2024-02-24T00:15:00,axn,27.29
2024-02-24T00:16:00,axn,27.36
2024-02-24T00:17:00,axn,27.38
2024-02-24T00:18:00,axn,27.72
2024-02-24T00:19:00,axn,27.72
2024-02-24T00:20:00,axn,27.94
2024-02-24T00:21:00,axn,27.94
2024-02-24T00:22:00,axn,27.83
2024-02-24T00:23:00,axn,27.54
2024-02-24T00:24:00,axn,27.76
2024-02-24T00:25:00,axn,27.54
2024-02-24T00:26:00,axn,27.53
2024-02-24T00:27:00,axn,27.31
2024-02-24T00:28:00,axn,27.48
2024-02-24T00:29:00,axn,29.35
2024-02-24T00:30:00,axn,27.80
2024-02-24T00:31:00,axn,29.22
2024-02-24T00:32:00,axn,29.33
2024-02-24T00:33:00,axn,29.29
2024-02-24T00:34:00,axn,29.22
2024-02-24T00:35:00,axn,29.30
2024-02-24T00:36:00,axn,29.13
2024-02-24T00:37:00,axn,29.27
2024-02-24T00:38:00,axn,29.23
2024-02-24T00:39:00,axn,29.15
2024-02-24T00:40:00,axn,29.37
2024-02-24T00:41:00,axn,29.45
2024-02-24T00:42:00,axn,29.82
2024-02-24T00:43:00,axn,29.54
2024-02-24T00:44:00,axn,27.64
2024-02-24T00:45:00,axn,27.31
2024-02-24T00:46:00,axn,29.91
2024-02-24T00:47:00,axn,32.35
2024-02-24T00:48:00,axn,33.16
2024-02-24T00:49:00,axn,33.12
2024-02-24T00:50:00,axn,32.99
2024-02-24T00:51:00,axn,32.41
2024-02-24T00:52:00,axn,31.91
2024-02-24T00:53:00,axn,32.52
2024-02-24T00:54:00,axn,32.63
2024-02-24T00:55:00,axn,33.11
2024-02-24T00:56:00,axn,32.94
2024-02-24T00:57:00,axn,34.69
2024-02-24T00:58:00,axn,34.71
2024-02-24T00:59:00,axn,32.64
2024-02-24T01:00:00,axn,32.18
2024-02-24T01:01:00,axn,33.96
2024-02-24T01:02:00,axn,33.32
2024-02-24T01:03:00,axn,31.37
2024-02-24T01:04:00,axn,31.32
2024-02-24T01:05:00,axn,31.59
2024-02-24T01:06:00,axn,32.41
2024-02-24T01:07:00,axn,31.22
2024-02-24T01:08:00,axn,31.09
2024-02-24T01:09:00,axn,31.04
2024-02-24T01:10:00,axn,32.41
2024-02-24T01:11:00,axn,31.36
2024-02-24T01:12:00,axn,32.41
2024-02-24T01:13:00,axn,32.23
2024-02-24T01:14:00,axn,31.37
2024-02-24T01:15:00,axn,31.52
2024-02-24T01:16:00,axn,31.76
2024-02-24T01:17:00,axn,32.30
2024-02-24T01:18:00,axn,32.62
2024-02-24T01:19:00,axn,32.36
2024-02-24T01:20:00,axn,31.77
2024-02-24T01:21:00,axn,32.35
2024-02-24T01:22:00,axn,32.74
2024-02-24T01:23:00,axn,33.70
2024-02-24T01:24:00,axn,32.65
2024-02-24T01:25:00,axn,32.42
2024-02-24T01:26:00,axn,33.12
2024-02-24T01:27:00,axn,31.82
2024-02-24T01:28:00,axn,32.07
2024-02-24T01:29:00,axn,32.48
2024-02-24T01:30:00,axn,32.43
2024-02-24T01:31:00,axn,32.19
2024-02-24T01:32:00,axn,31.98
2024-02-24T01:33:00,axn,31.74
2024-02-24T01:34:00,axn,31.84
2024-02-24T01:35:00,axn,29.56
2024-02-24T01:36:00,axn,28.44
2024-02-24T01:37:00,axn,27.33
2024-02-24T01:38:00,axn,27.78
2024-02-24T01:39:00,axn,27.26
2024-02-24T01:40:00,axn,27.48
2024-02-24T01:41:00,axn,27.00
2024-02-24T01:42:00,axn,26.92
2024-02-24T01:43:00,axn,26.94
2024-02-24T01:44:00,axn,26.93
2024-02-24T01:45:00,axn,27.03
2024-02-24T01:46:00,axn,27.18
2024-02-24T01:47:00,axn,26.98
2024-02-24T01:48:00,axn,26.95
2024-02-24T01:49:00,axn,27.09
2024-02-24T01:50:00,axn,26.82
2024-02-24T01:51:00,axn,26.83
2024-02-24T01:52:00,axn,26.71
2024-02-24T01:53:00,axn,26.62
2024-02-24T01:54:00,axn,26.58
2024-02-24T01:55:00,axn,26.83
2024-02-24T01:56:00,axn,26.89
2024-02-24T01:57:00,axn,26.92
2024-02-24T01:58:00,axn,27.15
2024-02-24T01:59:00,axn,27.10
2024-02-24T02:00:00,axn,26.95
2024-02-24T02:01:00,axn,26.88
2024-02-24T02:02:00,axn,26.95
2024-02-24T02:03:00,axn,26.80
2024-02-24T02:04:00,axn,26.60
2024-02-24T02:05:00,axn,26.91
2024-02-24T02:06:00,axn,26.73
2024-02-24T02:07:00,axn,26.76
2024-02-24T02:08:00,axn,27.27
2024-02-24T02:09:00,axn,26.63
2024-02-24T02:10:00,axn,26.84
2024-02-24T02:11:00,axn,26.72
2024-02-24T02:12:00,axn,32.69
2024-02-24T02:13:00,axn,32.70
2024-02-24T02:14:00,axn,32.47
2024-02-24T02:15:00,axn,26.72
2024-02-24T02:16:00,axn,26.79
2024-02-24T02:17:00,axn,26.62
2024-02-24T02:18:00,axn,26.80
2024-02-24T02:19:00,axn,26.80
2024-02-24T02:20:00,axn,27.23
2024-02-24T02:21:00,axn,26.85
2024-02-24T02:22:00,axn,26.81
2024-02-24T02:23:00,axn,41.55
2024-02-24T02:24:00,axn,41.11
2024-02-24T02:25:00,axn,41.05
2024-02-24T02:26:00,axn,40.32
2024-02-24T02:27:00,axn,40.81
2024-02-24T02:28:00,axn,40.77
2024-02-24T02:29:00,axn,26.18
2024-02-24T02:30:00,axn,26.17
2024-02-24T02:31:00,axn,26.31
2024-02-24T02:32:00,axn,26.30
2024-02-24T02:33:00,axn,26.83
2024-02-24T02:34:00,axn,26.51
2024-02-24T02:35:00,axn,26.57
2024-02-24T02:36:00,axn,26.47
2024-02-24T02:37:00,axn,26.86
2024-02-24T02:38:00,axn,26.78
2024-02-24T02:39:00,axn,26.66
2024-02-24T02:40:00,axn,26.57
2024-02-24T02:41:00,axn,27.31
2024-02-24T02:42:00,axn,27.13
2024-02-24T02:43:00,axn,26.99
2024-02-24T02:44:00,axn,26.82
2024-02-24T02:45:00,axn,26.77
2024-02-24T02:46:00,axn,28.52
2024-02-24T02:47:00,axn,28.43
2024-02-24T02:48:00,axn,31.29
2024-02-24T02:49:00,axn,33.70
2024-02-24T02:50:00,axn,32.59
2024-02-24T02:51:00,axn,33.28
2024-02-24T02:52:00,axn,32.63
2024-02-24T02:53:00,axn,32.84
2024-02-24T02:54:00,axn,31.86
2024-02-24T02:55:00,axn,32.69
2024-02-24T02:56:00,axn,32.21
2024-02-24T02:57:00,axn,30.93
2024-02-24T02:58:00,axn,30.78
2024-02-24T02:59:00,axn,31.49
2024-02-24T03:00:00,axn,31.18
2024-02-24T03:01:00,axn,31.35
2024-02-24T03:02:00,axn,31.42
2024-02-24T03:03:00,axn,31.01
2024-02-24T03:04:00,axn,31.19
2024-02-24T03:05:00,axn,32.99
2024-02-24T03:06:00,axn,31.16
2024-02-24T03:07:00,axn,31.87
2024-02-24T03:08:00,axn,30.75
2024-02-24T03:09:00,axn,31.08
2024-02-24T03:10:00,axn,31.00
2024-02-24T03:11:00,axn,31.92
2024-02-24T03:12:00,axn,31.35
2024-02-24T03:13:00,axn,31.05
2024-02-24T03:14:00,axn,31.44
2024-02-24T03:15:00,axn,31.10
2024-02-24T03:16:00,axn,31.03
2024-02-24T03:17:00,axn,30.81
2024-02-24T03:18:00,axn,30.92
2024-02-24T03:19:00,axn,27.27
2024-02-24T03:20:00,axn,27.43
2024-02-24T03:21:00,axn,25.51
2024-02-24T03:22:00,axn,25.52
2024-02-24T03:23:00,axn,25.53
2024-02-24T03:24:00,axn,25.58
2024-02-24T03:25:00,axn,25.66
2024-02-24T03:26:00,axn,25.49
2024-02-24T03:27:00,axn,25.43
2024-02-24T03:28:00,axn,25.46
2024-02-24T03:29:00,axn,25.95
2024-02-24T03:30:00,axn,25.62
2024-02-24T03:31:00,axn,25.72
2024-02-24T03:32:00,axn,25.81
2024-02-24T03:33:00,axn,25.32
2024-02-24T03:34:00,axn,25.27
2024-02-24T03:35:00,axn,25.30
2024-02-24T03:36:00,axn,25.82
2024-02-24T03:37:00,axn,25.81
2024-02-24T03:38:00,axn,25.64
2024-02-24T03:39:00,axn,25.73
2024-02-24T03:40:00,axn,25.69
2024-02-24T03:41:00,axn,25.62
2024-02-24T03:42:00,axn,25.90
2024-02-24T03:43:00,axn,25.71
2024-02-24T03:44:00,axn,28.48
2024-02-24T03:45:00,axn,25.63
2024-02-24T03:46:00,axn,25.61
2024-02-24T03:47:00,axn,25.62
2024-02-24T03:48:00,axn,25.57
2024-02-24T03:49:00,axn,25.51
2024-02-24T03:50:00,axn,25.42
2024-02-24T03:51:00,axn,25.54
2024-02-24T03:52:00,axn,25.53
2024-02-24T03:53:00,axn,25.61
2024-02-24T03:54:00,axn,25.36
2024-02-24T03:55:00,axn,25.41
2024-02-24T03:56:00,axn,25.32
2024-02-24T03:57:00,axn,25.52
2024-02-24T03:58:00,axn,26.04
2024-02-24T03:59:00,axn,30.06
2024-02-24T04:00:00,axn,30.17
2024-02-24T04:01:00,axn,30.49
2024-02-24T04:02:00,axn,30.99
2024-02-24T04:03:00,axn,30.15
2024-02-24T04:04:00,axn,25.62
2024-02-24T04:05:00,axn,25.38
2024-02-24T04:06:00,axn,25.45
2024-02-24T04:07:00,axn,25.54
2024-02-24T04:08:00,axn,25.41
2024-02-24T04:09:00,axn,25.37
2024-02-24T04:10:00,axn,25.40
2024-02-24T04:11:00,axn,25.48
2024-02-24T04:12:00,axn,25.60
2024-02-24T04:13:00,axn,25.50
2024-02-24T04:14:00,axn,25.43
2024-02-24T04:15:00,axn,25.31
2024-02-24T04:16:00,axn,25.62
2024-02-24T04:17:00,axn,25.30
2024-02-24T04:18:00,axn,25.50
2024-02-24T04:19:00,axn,25.40
2024-02-24T04:20:00,axn,25.72
2024-02-24T04:21:00,axn,25.37
2024-02-24T04:22:00,axn,25.53
2024-02-24T04:23:00,axn,25.30
2024-02-24T04:24:00,axn,25.30
2024-02-24T04:25:00,axn,25.28
2024-02-24T04:26:00,axn,25.19
2024-02-24T04:27:00,axn,35.55
2024-02-24T04:28:00,axn,35.51
2024-02-24T04:29:00,axn,35.51
2024-02-24T04:30:00,axn,35.38
2024-02-24T04:31:00,axn,25.19
2024-02-24T04:32:00,axn,25.26
2024-02-24T04:33:00,axn,25.08
2024-02-24T04:34:00,axn,25.29
2024-02-24T04:35:00,axn,25.20
2024-02-24T04:36:00,axn,25.15
2024-02-24T04:37:00,axn,25.12
2024-02-24T04:38:00,axn,25.44
2024-02-24T04:39:00,axn,25.16
2024-02-24T04:40:00,axn,25.05
2024-02-24T04:41:00,axn,25.24
2024-02-24T04:42:00,axn,25.19
2024-02-24T04:43:00,axn,25.70
2024-02-24T04:44:00,axn,25.50
2024-02-24T04:45:00,axn,25.44
2024-02-24T04:46:00,axn,25.64
2024-02-24T04:47:00,axn,25.30
2024-02-24T04:48:00,axn,25.52
2024-02-24T04:49:00,axn,25.80
2024-02-24T04:50:00,axn,25.63
2024-02-24T04:51:00,axn,25.46
2024-02-24T04:52:00,axn,25.29
2024-02-24T04:53:00,axn,25.19
2024-02-24T04:54:00,axn,25.46
2024-02-24T04:55:00,axn,25.76
2024-02-24T04:56:00,axn,25.99
2024-02-24T04:57:00,axn,25.42
2024-02-24T04:58:00,axn,25.48
2024-02-24T04:59:00,axn,25.47
2024-02-24T05:00:00,axn,26.38
2024-02-24T05:01:00,axn,25.10
2024-02-24T05:02:00,axn,24.94
2024-02-24T05:03:00,axn,29.42
2024-02-24T05:04:00,axn,29.23
2024-02-24T05:05:00,axn,29.87
2024-02-24T05:06:00,axn,30.10
2024-02-24T05:07:00,axn,29.83
2024-02-24T05:08:00,axn,29.95
2024-02-24T05:09:00,axn,25.30
2024-02-24T05:10:00,axn,25.11
2024-02-24T05:11:00,axn,25.37
2024-02-24T05:12:00,axn,25.25
2024-02-24T05:13:00,axn,25.25
2024-02-24T05:14:00,axn,25.31
2024-02-24T05:15:00,axn,25.21
2024-02-24T05:16:00,axn,25.14
2024-02-24T05:17:00,axn,25.19
2024-02-24T05:18:00,axn,25.23
2024-02-24T05:19:00,axn,25.16
2024-02-24T05:20:00,axn,25.19
2024-02-24T05:21:00,axn,29.84
2024-02-24T05:22:00,axn,25.41
2024-02-24T05:23:00,axn,25.58
2024-02-24T05:24:00,axn,25.59
2024-02-24T05:25:00,axn,26.23
2024-02-24T05:26:00,axn,25.73
2024-02-24T05:27:00,axn,25.62
2024-02-24T05:28:00,axn,25.53
2024-02-24T05:29:00,axn,25.59
2024-02-24T05:30:00,axn,25.73
2024-02-24T05:31:00,axn,26.79
2024-02-24T05:32:00,axn,27.04
2024-02-24T05:33:00,axn,27.45
2024-02-24T05:34:00,axn,26.96
2024-02-24T05:35:00,axn,26.77
2024-02-24T05:36:00,axn,26.67
2024-02-24T05:37:00,axn,26.86
2024-02-24T05:38:00,axn,26.71
2024-02-24T05:39:00,axn,26.47
2024-02-24T05:40:00,axn,26.61
2024-02-24T05:41:00,axn,26.57
2024-02-24T05:42:00,axn,27.00
2024-02-24T05:43:00,axn,26.66
2024-02-24T05:44:00,axn,31.05
2024-02-24T05:45:00,axn,26.41
2024-02-24T05:46:00,axn,26.58
2024-02-24T05:47:00,axn,26.98
2024-02-24T05:48:00,axn,26.49
2024-02-24T05:49:00,axn,26.95
2024-02-24T05:50:00,axn,26.55
2024-02-24T05:51:00,axn,26.71
2024-02-24T05:52:00,axn,26.88
2024-02-24T05:53:00,axn,26.48
2024-02-24T05:54:00,axn,26.48
2024-02-24T05:55:00,axn,26.49
2024-02-24T05:56:00,axn,26.37
2024-02-24T05:57:00,axn,27.11
2024-02-24T05:58:00,axn,26.54
2024-02-24T05:59:00,axn,26.44
2024-02-24T06:00:00,axn,31.40
2024-02-24T06:01:00,axn,26.59
2024-02-24T06:02:00,axn,26.49
2024-02-24T06:03:00,axn,26.34
2024-02-24T06:04:00,axn,26.58
2024-02-24T06:05:00,axn,26.71
2024-02-24T06:06:00,axn,26.35
2024-02-24T06:07:00,axn,26.28
2024-02-24T06:08:00,axn,26.26
2024-02-24T06:09:00,axn,26.24
2024-02-24T06:10:00,axn,26.44
2024-02-24T06:11:00,axn,26.07
2024-02-24T06:12:00,axn,26.16
2024-02-24T06:13:00,axn,30.62
2024-02-24T06:14:00,axn,26.50
2024-02-24T06:15:00,axn,26.79
2024-02-24T06:16:00,axn,26.12
2024-02-24T06:17:00,axn,26.18
2024-02-24T06:18:00,axn,25.97
2024-02-24T06:19:00,axn,26.17
2024-02-24T06:20:00,axn,26.31
2024-02-24T06:21:00,axn,26.35
2024-02-24T06:22:00,axn,26.01
2024-02-24T06:23:00,axn,26.04
2024-02-24T06:24:00,axn,25.71
2024-02-24T06:25:00,axn,26.16
2024-02-24T06:26:00,axn,25.87
2024-02-24T06:27:00,axn,25.90
2024-02-24T06:28:00,axn,41.57
2024-02-24T06:29:00,axn,26.04
2024-02-24T06:30:00,axn,25.93
2024-02-24T06:31:00,axn,25.90
2024-02-24T06:32:00,axn,25.58
2024-02-24T06:33:00,axn,25.49
2024-02-24T06:34:00,axn,25.49
2024-02-24T06:35:00,axn,25.53
2024-02-24T06:36:00,axn,28.21
2024-02-24T06:37:00,axn,28.30
2024-02-24T06:38:00,axn,25.46
2024-02-24T06:39:00,axn,25.43
2024-02-24T06:40:00,axn,25.41
2024-02-24T06:41:00,axn,25.45
2024-02-24T06:42:00,axn,25.15
2024-02-24T06:43:00,axn,25.30
2024-02-24T06:44:00,axn,25.10
2024-02-24T06:45:00,axn,29.67
2024-02-24T06:46:00,axn,25.02
2024-02-24T06:47:00,axn,25.20
2024-02-24T06:48:00,axn,25.45
2024-02-24T06:49:00,axn,25.16
2024-02-24T06:50:00,axn,25.39
2024-02-24T06:51:00,axn,26.32
2024-02-24T06:52:00,axn,25.85
2024-02-24T06:53:00,axn,25.70
2024-02-24T06:54:00,axn,41.82
2024-02-24T06:55:00,axn,25.01
2024-02-24T06:56:00,axn,24.99
2024-02-24T06:57:00,axn,24.88
2024-02-24T06:58:00,axn,24.93
2024-02-24T06:59:00,axn,28.92
2024-02-24T07:00:00,axn,29.85
2024-02-24T07:01:00,axn,42.88
2024-02-24T07:02:00,axn,32.72
2024-02-24T07:03:00,axn,33.31
2024-02-24T07:04:00,axn,32.97
2024-02-24T07:05:00,axn,32.90
2024-02-24T07:06:00,axn,32.48
2024-02-24T07:07:00,axn,33.38
2024-02-24T07:08:00,axn,32.48
2024-02-24T07:09:00,axn,33.64
2024-02-24T07:10:00,axn,34.15
2024-02-24T07:11:00,axn,32.94
2024-02-24T07:12:00,axn,33.47
2024-02-24T07:13:00,axn,32.64
2024-02-24T07:14:00,axn,34.18
2024-02-24T07:15:00,axn,34.23
2024-02-24T07:16:00,axn,38.65
2024-02-24T07:17:00,axn,38.42
2024-02-24T07:18:00,axn,33.49
2024-02-24T07:19:00,axn,34.15
2024-02-24T07:20:00,axn,33.41
2024-02-24T07:21:00,axn,34.12
2024-02-24T07:22:00,axn,34.75
2024-02-24T07:23:00,axn,35.87
2024-02-24T07:24:00,axn,35.07
2024-02-24T07:25:00,axn,34.94
2024-02-24T07:26:00,axn,35.33
2024-02-24T07:27:00,axn,35.60
2024-02-24T07:28:00,axn,36.91
2024-02-24T07:29:00,axn,36.27
2024-02-24T07:30:00,axn,35.62
2024-02-24T07:31:00,axn,35.79
2024-02-24T07:32:00,axn,35.77
2024-02-24T07:33:00,axn,35.30
2024-02-24T07:34:00,axn,35.77
2024-02-24T07:35:00,axn,36.28
2024-02-24T07:36:00,axn,35.28
2024-02-24T07:37:00,axn,34.62
2024-02-24T07:38:00,axn,34.69
2024-02-24T07:39:00,axn,34.57
2024-02-24T07:40:00,axn,36.68
2024-02-24T07:41:00,axn,34.54
2024-02-24T07:42:00,axn,34.26
2024-02-24T07:43:00,axn,34.25
2024-02-24T07:44:00,axn,34.73
2024-02-24T07:45:00,axn,33.95
2024-02-24T07:46:00,axn,33.90
2024-02-24T07:47:00,axn,39.06
2024-02-24T07:48:00,axn,39.21
2024-02-24T07:49:00,axn,35.42
2024-02-24T07:50:00,axn,33.86
2024-02-24T07:51:00,axn,35.54
2024-02-24T07:52:00,axn,34.79
2024-02-24T07:53:00,axn,34.36
2024-02-24T07:54:00,axn,36.09
2024-02-24T07:55:00,axn,34.32
2024-02-24T07:56:00,axn,34.46
2024-02-24T07:57:00,axn,34.68
2024-02-24T07:58:00,axn,34.57
2024-02-24T07:59:00,axn,34.36
2024-02-24T08:00:00,axn,34.61
2024-02-24T08:01:00,axn,36.78
2024-02-24T08:02:00,axn,35.95
2024-02-24T08:03:00,axn,50.26
2024-02-24T08:04:00,axn,50.97
2024-02-24T08:05:00,axn,50.47
2024-02-24T08:06:00,axn,49.85
2024-02-24T08:07:00,axn,49.31
2024-02-24T08:08:00,axn,51.30
2024-02-24T08:09:00,axn,35.74
2024-02-24T08:10:00,axn,35.58
2024-02-24T08:11:00,axn,35.83
2024-02-24T08:12:00,axn,35.20
2024-02-24T08:13:00,axn,35.89
2024-02-24T08:14:00,axn,35.48
2024-02-24T08:15:00,axn,34.88
2024-02-24T08:16:00,axn,36.05
2024-02-24T08:17:00,axn,39.52
2024-02-24T08:18:00,axn,35.05
2024-02-24T08:19:00,axn,34.73
2024-02-24T08:20:00,axn,35.67
2024-02-24T08:21:00,axn,34.76
2024-02-24T08:22:00,axn,35.11
2024-02-24T08:23:00,axn,35.69
2024-02-24T08:24:00,axn,35.13
2024-02-24T08:25:00,axn,36.56
2024-02-24T08:26:00,axn,35.90
2024-02-24T08:27:00,axn,35.02
2024-02-24T08:28:00,axn,36.64
2024-02-24T08:29:00,axn,35.36
2024-02-24T08:30:00,axn,34.82
2024-02-24T08:31:00,axn,34.75
2024-02-24T08:32:00,axn,34.63
2024-02-24T08:33:00,axn,35.12
2024-02-24T08:34:00,axn,45.38
2024-02-24T08:35:00,axn,46.59
2024-02-24T08:36:00,axn,47.27
2024-02-24T08:37:00,axn,45.11
2024-02-24T08:38:00,axn,46.22
2024-02-24T08:39:00,axn,35.33
2024-02-24T08:40:00,axn,35.67
2024-02-24T08:41:00,axn,37.06
2024-02-24T08:42:00,axn,36.22
2024-02-24T08:43:00,axn,35.59
2024-02-24T08:44:00,axn,35.58
2024-02-24T08:45:00,axn,36.96
2024-02-24T08:46:00,axn,37.07
2024-02-24T08:47:00,axn,39.86
2024-02-24T08:48:00,axn,40.10
2024-02-24T08:49:00,axn,35.85
2024-02-24T08:50:00,axn,36.90
2024-02-24T08:51:00,axn,35.79
2024-02-24T08:52:00,axn,35.65
2024-02-24T08:53:00,axn,35.68
2024-02-24T08:54:00,axn,36.11
2024-02-24T08:55:00,axn,36.03
2024-02-24T08:56:00,axn,35.87
2024-02-24T08:57:00,axn,36.09
2024-02-24T08:58:00,axn,36.03
2024-02-24T08:59:00,axn,37.14
2024-02-24T09:00:00,axn,37.37
2024-02-24T09:01:00,axn,37.33
2024-02-24T09:02:00,axn,37.20
2024-02-24T09:03:00,axn,37.25
2024-02-24T09:04:00,axn,37.32
2024-02-24T09:05:00,axn,38.60
2024-02-24T09:06:00,axn,37.85
2024-02-24T09:07:00,axn,37.42
2024-02-24T09:08:00,axn,38.06
2024-02-24T09:09:00,axn,37.61
2024-02-24T09:10:00,axn,37.35
2024-02-24T09:11:00,axn,38.99
2024-02-24T09:12:00,axn,39.40
2024-02-24T09:13:00,axn,38.12
2024-02-24T09:14:00,axn,38.13
2024-02-24T09:15:00,axn,42.76
2024-02-24T09:16:00,axn,43.10
2024-02-24T09:17:00,axn,39.19
2024-02-24T09:18:00,axn,39.53
2024-02-24T09:19:00,axn,37.80
2024-02-24T09:20:00,axn,37.92
2024-02-24T09:21:00,axn,37.46
2024-02-24T09:22:00,axn,38.45
2024-02-24T09:23:00,axn,41.35
2024-02-24T09:24:00,axn,40.69
2024-02-24T09:25:00,axn,38.04
2024-02-24T09:26:00,axn,37.72
2024-02-24T09:27:00,axn,39.58
2024-02-24T09:28:00,axn,39.14
2024-02-24T09:29:00,axn,38.65
2024-02-24T09:30:00,axn,38.95
2024-02-24T09:31:00,axn,39.12
2024-02-24T09:32:00,axn,38.10
2024-02-24T09:33:00,axn,44.10
2024-02-24T09:34:00,axn,44.15
2024-02-24T09:35:00,axn,43.66
2024-02-24T09:36:00,axn,43.94
2024-02-24T09:37:00,axn,38.23
2024-02-24T09:38:00,axn,38.01
2024-02-24T09:39:00,axn,38.46
2024-02-24T09:40:00,axn,38.58
2024-02-24T09:41:00,axn,43.99
2024-02-24T09:42:00,axn,38.01
2024-02-24T09:43:00,axn,38.65
2024-02-24T09:44:00,axn,38.70
2024-02-24T09:45:00,axn,37.76
2024-02-24T09:46:00,axn,39.35
2024-02-24T09:47:00,axn,39.22
2024-02-24T09:48:00,axn,37.97
2024-02-24T09:49:00,axn,38.81
2024-02-24T09:50:00,axn,38.01
2024-02-24T09:51:00,axn,38.16
2024-02-24T09:52:00,axn,38.55
2024-02-24T09:53:00,axn,38.61
2024-02-24T09:54:00,axn,38.45
2024-02-24T09:55:00,axn,39.25
2024-02-24T09:56:00,axn,39.31
2024-02-24T09:57:00,axn,38.01
2024-02-24T09:58:00,axn,37.95
2024-02-24T09:59:00,axn,37.86
2024-02-24T10:00:00,axn,39.15
2024-02-24T10:01:00,axn,37.90
2024-02-24T10:02:00,axn,38.24
2024-02-24T10:03:00,axn,38.86
2024-02-24T10:04:00,axn,38.41
2024-02-24T10:05:00,axn,39.53
2024-02-24T10:06:00,axn,39.56
2024-02-24T10:07:00,axn,37.72
2024-02-24T10:08:00,axn,37.66
2024-02-24T10:09:00,axn,37.77
2024-02-24T10:10:00,axn,42.23
2024-02-24T10:11:00,axn,38.24
2024-02-24T10:12:00,axn,37.45
2024-02-24T10:13:00,axn,38.61
2024-02-24T10:14:00,axn,38.08
2024-02-24T10:15:00,axn,37.25
2024-02-24T10:16:00,axn,37.26
2024-02-24T10:17:00,axn,37.28
2024-02-24T10:18:00,axn,38.36
2024-02-24T10:19:00,axn,37.24
2024-02-24T10:20:00,axn,37.01
2024-02-24T10:21:00,axn,37.47
2024-02-24T10:22:00,axn,43.40
2024-02-24T10:23:00,axn,37.22
2024-02-24T10:24:00,axn,36.72
2024-02-24T10:25:00,axn,38.41
2024-02-24T10:26:00,axn,39.15
2024-02-24T10:27:00,axn,37.17
2024-02-24T10:28:00,axn,37.71
2024-02-24T10:29:00,axn,37.26
2024-02-24T10:30:00,axn,38.14
2024-02-24T10:31:00,axn,37.97
2024-02-24T10:32:00,axn,43.42
2024-02-24T10:33:00,axn,41.62
2024-02-24T10:34:00,axn,41.99
2024-02-24T10:35:00,axn,40.90
2024-02-24T10:36:00,axn,41.36
2024-02-24T10:37:00,axn,40.85
2024-02-24T10:38:00,axn,41.07
2024-02-24T10:39:00,axn,41.36
2024-02-24T10:40:00,axn,46.67
2024-02-24T10:41:00,axn,46.82
2024-02-24T10:42:00,axn,41.82
2024-02-24T10:43:00,axn,41.93
2024-02-24T10:44:00,axn,41.35
2024-02-24T10:45:00,axn,40.39
2024-02-24T10:46:00,axn,40.34
2024-02-24T10:47:00,axn,40.39
2024-02-24T10:48:00,axn,41.50
2024-02-24T10:49:00,axn,42.04
2024-02-24T10:50:00,axn,40.67
2024-02-24T10:51:00,axn,41.23
2024-02-24T10:52:00,axn,41.81
2024-02-24T10:53:00,axn,41.33
2024-02-24T10:54:00,axn,40.27
2024-02-24T10:55:00,axn,40.50
2024-02-24T10:56:00,axn,40.01
2024-02-24T10:57:00,axn,42.32
2024-02-24T10:58:00,axn,40.48
2024-02-24T10:59:00,axn,40.61
2024-02-24T11:00:00,axn,40.68
2024-02-24T11:01:00,axn,40.42
2024-02-24T11:02:00,axn,41.27
2024-02-24T11:03:00,axn,40.44
2024-02-24T11:04:00,axn,41.39
2024-02-24T11:05:00,axn,42.05
2024-02-24T11:06:00,axn,40.80
2024-02-24T11:07:00,axn,40.89
2024-02-24T11:08:00,axn,43.76
2024-02-24T11:09:00,axn,43.77
2024-02-24T11:10:00,axn,40.78
2024-02-24T11:11:00,axn,40.62
2024-02-24T11:12:00,axn,41.66
2024-02-24T11:13:00,axn,42.74
2024-02-24T11:14:00,axn,43.66
2024-02-24T11:15:00,axn,47.57
2024-02-24T11:16:00,axn,42.93
2024-02-24T11:17:00,axn,41.59
2024-02-24T11:18:00,axn,42.70
2024-02-24T11:19:00,axn,42.40
2024-02-24T11:20:00,axn,41.99
2024-02-24T11:21:00,axn,56.77
2024-02-24T11:22:00,axn,41.29
2024-02-24T11:23:00,axn,41.57
2024-02-24T11:24:00,axn,41.57
2024-02-24T11:25:00,axn,57.80
2024-02-24T11:26:00,axn,42.91
2024-02-24T11:27:00,axn,43.34
2024-02-24T11:28:00,axn,42.79
2024-02-24T11:29:00,axn,43.14
2024-02-24T11:30:00,axn,41.85
2024-02-24T11:31:00,axn,41.18
2024-02-24T11:32:00,axn,41.01
2024-02-24T11:33:00,axn,41.61
2024-02-24T11:34:00,axn,42.60
2024-02-24T11:35:00,axn,41.69
2024-02-24T11:36:00,axn,41.66
2024-02-24T11:37:00,axn,41.58
2024-02-24T11:38:00,axn,41.43
2024-02-24T11:39:00,axn,41.82
2024-02-24T11:40:00,axn,41.72
2024-02-24T11:41:00,axn,42.80
2024-02-24T11:42:00,axn,41.88
2024-02-24T11:43:00,axn,42.01
2024-02-24T11:44:00,axn,42.47
2024-02-24T11:45:00,axn,47.37
2024-02-24T11:46:00,axn,46.35
2024-02-24T11:47:00,axn,41.67
2024-02-24T11:48:00,axn,41.66
2024-02-24T11:49:00,axn,41.50
2024-02-24T11:50:00,axn,41.53
2024-02-24T11:51:00,axn,41.71
2024-02-24T11:52:00,axn,41.68
2024-02-24T11:53:00,axn,41.55
2024-02-24T11:54:00,axn,41.70
2024-02-24T11:55:00,axn,41.65
2024-02-24T11:56:00,axn,41.60
2024-02-24T11:57:00,axn,42.03
2024-02-24T11:58:00,axn,41.46
2024-02-24T11:59:00,axn,41.08
2024-02-24T12:00:00,axn,41.83
2024-02-24T12:01:00,axn,41.22
2024-02-24T12:02:00,axn,41.12
2024-02-24T12:03:00,axn,41.16
2024-02-24T12:04:00,axn,42.75
2024-02-24T12:05:00,axn,41.35
2024-02-24T12:06:00,axn,42.85
2024-02-24T12:07:00,axn,41.90
2024-02-24T12:08:00,axn,42.16
2024-02-24T12:09:00,axn,41.64
2024-02-24T12:10:00,axn,42.60
2024-02-24T12:11:00,axn,42.26
2024-02-24T12:12:00,axn,43.07
2024-02-24T12:13:00,axn,42.65
2024-02-24T12:14:00,axn,46.68
2024-02-24T12:15:00,axn,48.47
2024-02-24T12:16:00,axn,43.58
2024-02-24T12:17:00,axn,42.55
2024-02-24T12:18:00,axn,44.10
2024-02-24T12:19:00,axn,42.35
2024-02-24T12:20:00,axn,41.69
2024-02-24T12:21:00,axn,41.99
2024-02-24T12:22:00,axn,42.18
2024-02-24T12:23:00,axn,43.29
2024-02-24T12:24:00,axn,43.26
2024-02-24T12:25:00,axn,42.57
2024-02-24T12:26:00,axn,43.78
2024-02-24T12:27:00,axn,53.53
2024-02-24T12:28:00,axn,53.27
2024-02-24T12:29:00,axn,53.92
2024-02-24T12:30:00,axn,53.96
2024-02-24T12:31:00,axn,52.57
2024-02-24T12:32:00,axn,42.34
2024-02-24T12:33:00,axn,42.19
2024-02-24T12:34:00,axn,42.27
2024-02-24T12:35:00,axn,43.90
2024-02-24T12:36:00,axn,44.06
2024-02-24T12:37:00,axn,42.59
2024-02-24T12:38:00,axn,42.58
2024-02-24T12:39:00,axn,42.46
2024-02-24T12:40:00,axn,43.08
2024-02-24T12:41:00,axn,45.81
2024-02-24T12:42:00,axn,46.21
2024-02-24T12:43:00,axn,42.86
2024-02-24T12:44:00,axn,44.41
2024-02-24T12:45:00,axn,47.76
2024-02-24T12:46:00,axn,47.62
2024-02-24T12:47:00,axn,42.86
2024-02-24T12:48:00,axn,42.52
2024-02-24T12:49:00,axn,42.39
2024-02-24T12:50:00,axn,41.51
2024-02-24T12:51:00,axn,42.62
2024-02-24T12:52:00,axn,42.29
2024-02-24T12:53:00,axn,41.58
2024-02-24T12:54:00,axn,43.31
2024-02-24T12:55:00,axn,42.20
2024-02-24T12:56:00,axn,41.44
2024-02-24T12:57:00,axn,41.39
2024-02-24T12:58:00,axn,41.51
2024-02-24T12:59:00,axn,41.84
2024-02-24T13:00:00,axn,42.86
2024-02-24T13:01:00,axn,41.70
2024-02-24T13:02:00,axn,41.63
2024-02-24T13:03:00,axn,55.71
2024-02-24T13:04:00,axn,56.60
2024-02-24T13:05:00,axn,55.47
2024-02-24T13:06:00,axn,55.78
2024-02-24T13:07:00,axn,55.56
2024-02-24T13:08:00,axn,42.98
2024-02-24T13:09:00,axn,41.80
2024-02-24T13:10:00,axn,41.27
2024-02-24T13:11:00,axn,42.91
2024-02-24T13:12:00,axn,43.84
2024-02-24T13:13:00,axn,43.46
2024-02-24T13:14:00,axn,43.15
2024-02-24T13:15:00,axn,47.00
2024-02-24T13:16:00,axn,47.38
2024-02-24T13:17:00,axn,42.60
2024-02-24T13:18:00,axn,42.00